Vertical_Velocity
-0 0 -2 -1 -0 1 -5 3 -3 -1 -4 0 -3 -1 1 -2 1 -3 -8 4 -2 -1 1 1 -3 -2 3 0 1 1 -0 -0 0 -1 2 2 -2 -2 1 -2 -1 1 8 -5 -4
3 -3 1 -2 -2 -1 -1 -0 2 -1 -3 2 -1 -2 -2 -1 -2 -3 5 1 0 2 1 1 1 0 -1 -1 1 -2 1 -4 -4 -2 -0 2 0 -1 1 0 1 2 3 3 2
0 0 -1 0 -2 -1 -1 -3 3 0 -1 1 -2 -1 1 1 -1 -0 3 3 -6 -0 1 0 -1 1 -0 0 -0 0 -1 -2 0 -2 -1 2 4 4 -2 3 -1 -7 -4 -1 -2
-2 0 -3 8 -7 -1 -2 0 2 -0 -1 -1 -0 2 2 2 -2 1 0 -0 -2 -3 2 -1 0 -0 1 0 1 2 1 1 2 -1 2 -2 0 1 -0 -2 -1 1 3 -7 -6
-1 -3 -0 2 -5 2 -1 3 -0 2 -2 -1 -1 1 -2 1 -12 2 4 2 4 0 1 0 -1 0 -0 -0 1 1 -0 0 -4 -1 -3 0 2 -1 1 0 2 2 6 -0 -1
6 -1 0 1 -6 2 1 4 1 0 -1 -0 -0 1 1 -2 1 1 -0 1 1 1 -0 -1 -3 -3 1 -0 0 0 -1 2 2 1 -1 -3 1 -3 1 1 1 -1 -2 1 3
-0 -2 0 5 -6 2 -1 3 -0 2 1 -1 -0 2 -0 -15 2 1 1 3 4 1 -0 -0 6 1 3 0 2 -1 -2 0 0 2 0 -3 -2 -0 2 1 -0 3 6 0 -4
5 1 -1 4 -8 7 -2 2 -1 2 1 -0 2 1 -11 2 -1 -1 1 2 4 2 3 4 8 1 0 2 -1 -2 -4 -1 -0 0 2 -1 3 0 2 4 2 2 0 1 1
-3 1 -1 2 -5 8 -3 -1 -4 3 1 -0 1 2 -8 1 -2 6 3 2 3 2 3 4 2 0 2 -1 -2 -3 -1 -0 2 1 -0 -3 1 -1 3 2 3 4 2 1 2
3 -1 -2 4 -1 4 0 -1 -1 2 2 0 3 2 0 -1 1 3 1 2 -1 5 2 3 2 -1 -0 -1 -3 -1 0 1 -1 3 -3 0 1 -2 0 2 -0 -1 -0 2 2
3 -2 2 1 8 -1 2 -4 -1 0 1 -5 -0 2 2 2 0 2 0 -0 3 2 -1 -0 -1 -1 -1 -1 -1 -1 -1 -0 1 1 -7 1 0 1 0 1 1 1 1 1 1
2 -3 1 -2 10 -2 -3 -5 2 6 -2 -2 1 -4 -2 0 -1 -1 3 -1 -2 -0 -0 -5 -1 0 -0 -0 -2 -0 -1 1 2 -0 -5 0 2 2 0 1 1 -0 -0 0 0
2 -0 -3 3 2 0 -6 -4 -0 4 1 0 -1 -2 0 1 -1 -2 2 0 -2 -1 -0 -3 -1 -0 -1 0 -2 0 -2 0 -2 1 0 -0 2 0 2 -1 0 -0 1 2 1
-1 1 -4 9 5 4 -16 7 2 6 -4 -3 -1 -2 -0 3 -2 2 -1 1 -1 -3 -1 0 -0 -1 -0 -0 -2 -1 0 -1 -0 -1 0 3 -2 -1 0 1 1 1 1 1 0
7 -4 1 14 -1 -8 3 1 9 1 -5 -9 -0 5 1 -2 -1 2 1 1 -1 -0 -2 -1 -0 -0 -1 1 -1 0 -1 -0 -0 -1 -1 0 2 -0 0 0 1 1 1 3 3
4 -3 6 3 -0 2 9 2 4 -16 -8 0 0 0 -2 1 1 2 1 -1 -1 -2 -2 -0 1 -1 -0 1 -0 -1 -2 -2 -1 -1 -1 0 2 -2 -1 -4 2 2 2 2 1
-2 -1 2 2 0 4 5 4 -9 -5 -6 -0 -1 -0 -1 0 -0 -1 -1 -2 -1 -5 -2 -2 -1 -1 -1 -2 -1 -3 -3 -2 -2 -2 -2 0 2 -4 -1 -1 -8 -6 -2 -1 -1
4 1 -0 -0 6 9 1 -5 1 -4 -2 -0 -1 -0 -3 -2 0 0 -0 -0 -1 -2 -1 -2 -2 -1 -0 -1 -4 0 -3 -4 -3 -1 -1 0 -2 -0 -0 0 1 -0 0 1 0
2 3 -1 -0 6 8 5 -3 -9 -2 -4 -1 -1 -2 1 0 -6 -2 -0 -0 0 -0 -6 -2 -0 -1 -1 -0 -1 1 -0 -1 -4 0 1 -2 -3 2 0 1 3 1 1 -2 1
-1 5 -1 5 5 5 -4 -4 -1 -1 -0 -0 -3 -4 -1 0 -3 -2 -1 -1 0 -0 -1 -1 -2 -0 0 -0 1 -1 -2 1 -1 -1 -0 -1 -1 -4 -0 0 1 3 -2 1 2
8 0 1 5 10 5 -4 -4 -1 -2 -1 -4 -1 -1 -1 -2 -2 0 -1 -1 0 0 -1 -1 -6 -4 0 -1 -3 1 1 -2 -4 -0 -2 -1 -5 -3 -2 -3 -3 -3 -1 2 -0
1 -0 7 4 -5 0 -1 -4 -1 -1 1 -0 -4 -1 -2 -0 -0 -0 -3 -2 -0 -0 -1 0 -3 -1 -1 -0 0 -0 -1 -2 -4 1 0 -1 -9 -0 -0 -1 -0 1 2 0 2
-0 4 15 -0 -5 -0 -1 -0 -1 0 -0 0 -0 -3 -0 -1 -5 -1 0 0 -0 -0 -3 -4 -1 -1 -3 -4 -1 0 1 -1 -1 -1 -2 -3 -6 -0 -0 0 0 -1 -1 1 1
2 -4 6 2 1 -6 -1 0 -0 1 0 -0 -1 -2 -1 -0 -1 -1 1 1 0 -0 1 -3 -0 -5 -8 -5 -2 1 1 0 -3 -1 -2 -5 -2 -1 -1 -0 0 0 1 0 -0
3 -1 -2 -2 -1 0 -2 -2 0 0 -0 0 0 -2 -3 -1 -0 -0 0 1 0 1 -1 -3 -2 -1 0 0 0 -0 -1 0 1 -2 -4 -4 -1 -3 -3 -3 -3 -1 1 0 -0
-7 -5 1 1 3 -2 -1 -1 -2 1 -2 0 -5 0 -0 -3 -6 -4 -3 -1 -4 1 -0 -0 -0 -0 0 -0 -0 0 -0 0 -0 0 1 1 -6 -3 1 1 1 -2 -0 0 -1
2 2 1 1 1 -4 -4 -1 -1 -3 1 1 -3 -3 -1 1 -0 3 0 -0 -2 -3 -0 -1 -2 -1 -2 0 -1 -5 -6 -2 -1 -0 -4 -1 -12 -0 1 -0 -2 -0 -1 -3 -3
Height
1527 1526 1524 1525 1524 1522 1520 1519 1517 1516 1515 1514 1514 1513 1512 1512 1511 1510 1507 1509 1509 1510 1513 1514 1515 1517 1518 1518 1519 1520 1522 1525 1523 1524 1535 1531 1533 1532 1532 1532 1537 1538 1537 1538 1543
1524 1523 1522 1521 1520 1519 1518 1516 1514 1513 1512 1512 1512 1511 1511 1510 1509 1506 1505 1505 1507 1510 1512 1513 1514 1516 1516 1517 1518 1520 1521 1517 1515 1518 1519 1521 1524 1527 1532 1533 1536 1536 1537 1540 1544
1521 1519 1518 1517 1517 1517 1515 1513 1512 1511 1510 1510 1510 1510 1509 1509 1508 1503 1502 1503 1505 1508 1510 1512 1513 1514 1516 1516 1517 1517 1515 1514 1514 1514 1516 1518 1528 1526 1529 1532 1530 1533 1535 1540 1545
1517 1516 1515 1514 1513 1513 1512 1511 1509 1509 1508 1508 1508 1508 1508 1509 1509 1502 1502 1502 1504 1506 1508 1509 1511 1513 1513 1513 1512 1514 1509 1509 1512 1513 1516 1521 1525 1523 1525 1529 1529 1531 1534 1539 1545
1512 1512 1511 1511 1510 1509 1508 1509 1507 1508 1507 1507 1507 1507 1507 1508 1503 1501 1501 1502 1503 1504 1505 1506 1508 1509 1509 1510 1510 1510 1508 1510 1510 1510 1516 1519 1521 1523 1526 1528 1529 1533 1538 1542 1546
1509 1509 1508 1507 1507 1506 1506 1507 1506 1506 1506 1506 1506 1506 1508 1507 1501 1500 1501 1501 1502 1502 1503 1504 1506 1507 1506 1507 1508 1507 1509 1509 1511 1513 1517 1519 1523 1524 1530 1529 1532 1536 1539 1542 1546
1507 1506 1505 1504 1504 1503 1504 1505 1505 1505 1504 1505 1506 1505 1506 1500 1499 1499 1500 1499 1499 1500 1501 1503 1505 1507 1505 1507 1508 1508 1510 1511 1514 1515 1519 1518 1527 1528 1528 1531 1533 1539 1542 1545 1550
1504 1503 1503 1501 1502 1500 1502 1504 1504 1504 1504 1505 1505 1505 1500 1499 1498 1498 1498 1498 1497 1498 1500 1502 1503 1507 1507 1506 1506 1508 1512 1517 1516 1516 1521 1521 1532 1534 1533 1533 1535 1539 1543 1545 1549
1500 1500 1501 1499 1499 1498 1500 1503 1503 1503 1504 1505 1505 1504 1498 1497 1497 1497 1498 1497 1497 1497 1499 1501 1502 1505 1506 1507 1510 1514 1519 1520 1519 1516 1518 1522 1533 1535 1534 1534 1537 1540 1543 1546 1548
1495 1497 1499 1496 1496 1496 1500 1502 1503 1503 1504 1505 1504 1506 1497 1497 1496 1496 1497 1497 1497 1497 1500 1501 1502 1504 1506 1505 1519 1517 1518 1519 1518 1520 1522 1527 1536 1536 1534 1536 1538 1540 1544 1545 1546
1492 1493 1496 1494 1494 1495 1499 1501 1506 1506 1501 1497 1497 1495 1495 1496 1495 1496 1496 1496 1496 1496 1499 1499 1501 1504 1503 1506 1508 1511 1514 1517 1521 1523 1527 1536 1538 1539 1536 1536 1538 1538 1541 1543 1547
1489 1490 1492 1492 1492 1494 1496 1498 1498 1499 1497 1495 1495 1495 1495 1496 1495 1495 1496 1497 1496 1500 1499 1502 1507 1505 1505 1508 1510 1513 1517 1523 1524 1524 1525 1535 1537 1539 1538 1538 1538 1540 1542 1543 1545
1486 1487 1488 1489 1490 1493 1494 1495 1496 1497 1495 1493 1492 1493 1494 1495 1494 1494 1495 1496 1498 1502 1503 1505 1507 1506 1508 1511 1511 1517 1519 1521 1521 1524 1527 1529 1532 1538 1540 1540 1540 1540 1542 1543 1545
1482 1484 1485 1488 1492 1491 1492 1496 1496 1496 1500 1494 1491 1490 1492 1492 1494 1494 1495 1497 1499 1504 1505 1508 1507 1508 1510 1513 1512 1519 1518 1519 1521 1522 1527 1531 1528 1533 1537 1540 1541 1540 1541 1543 1545
1478 1481 1483 1487 1487 1489 1493 1493 1495 1497 1518 1490 1489 1489 1489 1492 1493 1494 1494 1495 1500 1502 1506 1513 1510 1511 1514 1514 1511 1520 1519 1520 1525 1527 1529 1531 1531 1530 1537 1536 1538 1540 1542 1544 1547
1474 1477 1481 1482 1485 1487 1490 1493 1495 1506 1510 1489 1485 1487 1490 1491 1492 1492 1493 1495 1498 1502 1503 1508 1508 1510 1512 1513 1513 1518 1520 1525 1530 1530 1536 1536 1534 1527 1533 1530 1536 1540 1542 1544 1546
1471 1474 1478 1481 1482 1485 1489 1492 1503 1508 1487 1490 1487 1486 1489 1493 1494 1494 1497 1501 1501 1510 1515 1511 1512 1511 1510 1513 1516 1517 1522 1537 1539 1540 1539 1538 1540 1522 1527 1528 1529 1534 1539 1542 1545
1468 1471 1473 1477 1480 1483 1487 1492 1500 1491 1489 1484 1485 1488 1493 1493 1497 1497 1500 1503 1502 1502 1515 1517 1522 1513 1512 1514 1517 1523 1522 1534 1544 1544 1538 1538 1533 1519 1525 1526 1528 1532 1536 1540 1543
1464 1467 1470 1473 1478 1480 1486 1498 1493 1490 1482 1484 1486 1491 1494 1493 1494 1499 1503 1504 1503 1502 1509 1517 1520 1514 1514 1514 1516 1524 1528 1530 1544 1560 1547 1534 1528 1521 1525 1525 1528 1531 1535 1537 1540
1460 1465 1466 1471 1475 1478 1483 1489 1483 1479 1478 1480 1489 1489 1497 1495 1497 1500 1502 1503 1503 1502 1502 1511 1521 1516 1515 1515 1517 1516 1525 1531 1537 1547 1544 1535 1534 1519 1522 1523 1526 1529 1531 1534 1537
1459 1464 1464 1468 1472 1476 1484 1483 1478 1475 1475 1479 1485 1489 1491 1494 1497 1501 1504 1504 1502 1502 1502 1508 1513 1521 1517 1517 1517 1522 1525 1534 1536 1544 1540 1545 1524 1518 1515 1518 1520 1522 1526 1530 1534
1455 1459 1459 1465 1470 1474 1478 1474 1472 1473 1473 1475 1476 1481 1487 1491 1496 1499 1501 1500 1501 1502 1505 1509 1516 1524 1519 1517 1517 1517 1520 1524 1533 1540 1551 1548 1525 1518 1517 1517 1519 1521 1524 1528 1532
1450 1452 1458 1462 1471 1476 1472 1470 1470 1471 1472 1472 1476 1477 1484 1490 1498 1499 1500 1501 1500 1502 1505 1507 1518 1527 1522 1520 1517 1517 1520 1526 1532 1538 1540 1540 1521 1517 1517 1516 1517 1520 1523 1526 1529
1447 1452 1456 1461 1460 1463 1468 1469 1470 1470 1470 1471 1476 1478 1484 1491 1494 1499 1501 1501 1500 1501 1503 1504 1515 1514 1517 1515 1517 1519 1519 1523 1522 1532 1532 1527 1516 1513 1514 1514 1515 1517 1521 1524 1527
1439 1444 1447 1458 1460 1459 1461 1465 1470 1471 1469 1470 1475 1477 1481 1492 1495 1499 1499 1501 1502 1503 1504 1506 1511 1516 1520 1521 1519 1516 1516 1520 1519 1519 1519 1513 1517 1507 1507 1508 1512 1516 1519 1522 1526
1435 1439 1445 1451 1453 1459 1462 1465 1467 1470 1470 1471 1475 1479 1479 1485 1485 1494 1493 1498 1498 1504 1505 1509 1516 1518 1521 1523 1523 1519 1515 1516 1518 1518 1516 1515 1509 1503 1505 1506 1510 1512 1515 1519 1523
1433 1435 1440 1454 1455 1459 1462 1463 1464 1466 1472 1472 1473 1478 1482 1484 1484 1485 1489 1491 1494 1499 1507 1511 1516 1520 1523 1529 1525 1523 1507 1506 1508 1506 1502 1508 1493 1501 1503 1504 1504 1507 1511 1515 1519